Location: The Jewett Observatory
(46.7288°N, 117.1525°W)
Time: 13:13:31
(UTC-08:00)

Amateur Radio Satellites - All Passes

Search period start: 09 December 2016 12:43
Search period end: 10 December 2016 12:43
Location: The Jewett Observatory, 46.7288°N, 117.1525°W

Satellite Date Start Highest point End Downlink Frequencies (MHz)
Time Altitude Azimuth
ITAMSAT 1 09 Dec 12:45:25 12:49:25 23° 60° (ENE) 12:53:25 435.822/435.867
GONETS M04 09 Dec 13:05:52 13:12:28 25° 281° (W) 13:19:06
AISAT 09 Dec 13:08:49 13:12:24 24° 296° (WNW) 13:15:58 437.250
BEESAT 3 09 Dec 13:20:15 13:23:25 23° 245° (WSW) 13:26:34 437.485
TISAT 1 09 Dec 13:20:57 13:25:10 64° 101° (E) 13:29:20 437.305
ESTCUBE 1 09 Dec 13:21:39 13:22:00 10° 305° (NW) 13:22:20 437.505/2401.250
CUBEBUG 1 09 Dec 13:25:43 13:27:45 13° 302° (WNW) 13:29:45 437.445
50 SAT 09 Dec 13:27:57 13:29:31 13° 298° (WNW) 13:31:05 437.505
SWISSCUBE 09 Dec 13:30:30 13:34:00 20° 92° (E) 13:37:27 437.505
BEESAT 09 Dec 13:34:09 13:37:36 19° 92° (E) 13:41:00 436.000
AUBIESAT-1 09 Dec 13:43:18 13:45:53 15° 94° (E) 13:48:24 437.475
AIST 2 09 Dec 13:43:43 13:46:35 17° 33° (NNE) 13:49:26 435.215
UKube-1 09 Dec 13:44:55 13:48:27 25° 296° (WNW) 13:51:58 .
DX 1 09 Dec 13:45:54 13:49:04 20° 298° (WNW) 13:52:13 434.975-435.025
VELOX 1 09 Dec 13:46:52 13:48:41 12° 303° (WNW) 13:50:28 145.980
Oscar 19 09 Dec 13:48:54 13:52:08 17° 271° (W) 13:55:25 437.125/150
SPROUT 09 Dec 13:50:23 13:52:37 14° 300° (WNW) 13:54:50 437.525
BEESAT 2 09 Dec 13:57:57 14:01:00 21° 246° (WSW) 14:04:02 435.950
M-CUBED/EXP-1 PRIME 09 Dec 13:58:01 14:01:54 26° 98° (E) 14:05:37 437.505
ITUPSAT 1 09 Dec 14:03:49 14:08:13 35° 97° (E) 14:12:34 437.325
MOZHAYETS 4 09 Dec 14:07:33 14:08:18 10° 86° (E) 14:09:02
Gurwin Techsat 1B 09 Dec 14:15:58 14:19:41 19° 270° (W) 14:23:27 435.225
ISS 09 Dec 14:16:55 14:19:22 20° 138° (SE) 14:21:50 145.825
RS-15 09 Dec 14:18:12 14:30:31 61° 42° (NE) 14:42:29 29.354- 29.394
O/OREOS (USA 219) 09 Dec 14:20:44 14:24:28 25° 104° (ESE) 14:28:12 437.305
ITAMSAT 1 09 Dec 14:23:22 14:28:30 58° 259° (W) 14:33:39 435.822/435.867
AO-7 09 Dec 14:27:23 14:35:42 84° 251° (WSW) 14:44:07 29.400- 29.500
TISAT 1 09 Dec 14:57:55 15:00:18 15° 300° (WNW) 15:02:42 437.305
SWISSCUBE 09 Dec 15:07:28 15:12:05 52° 290° (WNW) 15:16:41 437.505
BEESAT 09 Dec 15:11:03 15:15:42 53° 289° (WNW) 15:20:18 436.000
Cosmos 2491 09 Dec 15:13:30 15:18:51 17° 53° (NE) 15:24:09 435.465 / 435.565
AUBIESAT-1 09 Dec 15:16:11 15:20:46 69° 293° (WNW) 15:25:08 437.475
Cubesat XI-IV 09 Dec 15:17:57 15:19:34 11° 52° (NE) 15:21:11 437.490
AIST 2 09 Dec 15:21:25 15:25:41 88° 59° (ENE) 15:29:54 435.215
BRITE-PL 09 Dec 15:26:03 15:30:06 35° 67° (ENE) 15:34:28 437.365/2234.400
M-CUBED/EXP-1 PRIME 09 Dec 15:32:04 15:36:28 42° 297° (WNW) 15:40:42 437.505
NOAA 18 09 Dec 15:33:37 15:35:19 11° 50° (NE) 15:37:00 137.9125
STARS 09 Dec 15:38:25 15:41:23 17° 91° (E) 15:44:20 437.465
MOZHAYETS 4 09 Dec 15:41:32 15:46:08 89° 124° (SE) 15:50:42
ITUPSAT 1 09 Dec 15:41:50 15:45:57 30° 295° (WNW) 15:50:03 437.325
KKS-1 09 Dec 15:42:47 15:47:00 39° 98° (E) 15:51:11 437.445
ISS 09 Dec 15:52:16 15:55:34 77° 335° (NNW) 15:58:53 145.825
CUBESAT XI-V 09 Dec 15:55:36 15:59:11 21° 92° (E) 16:02:45 437.345
HORYU 2 09 Dec 15:57:20 16:01:44 58° 72° (ENE) 16:06:08 437.375
O/OREOS (USA 219) 09 Dec 15:59:24 16:03:41 39° 302° (WNW) 16:07:58 437.305
DOVE 4 09 Dec 16:09:46 16:13:32 22° 61° (ENE) 16:17:25 437.250
LilacSat-2 09 Dec 16:18:06 16:21:14 24° 67° (ENE) 16:24:22 437.200
GOMX 1 09 Dec 16:18:43 16:23:17 50° 71° (ENE) 16:28:14 467.674
AO-7 09 Dec 16:24:11 16:29:42 19° 272° (W) 16:35:16 29.400- 29.500
CUTE-I 09 Dec 16:26:27 16:31:23 39° 66° (ENE) 16:36:20 437.470
HO-68 09 Dec 16:29:18 16:33:31 17° 47° (NE) 16:37:44 435.675
RS-15 09 Dec 16:31:16 16:42:59 53° 248° (WSW) 16:54:23 29.354- 29.394
NOAA 15 09 Dec 16:35:50 16:40:52 50° 69° (ENE) 16:45:56 137.62
AUBIESAT-1 09 Dec 16:52:51 16:54:17 11° 311° (NW) 16:55:43 437.475
Cubesat XI-IV 09 Dec 16:53:18 16:58:37 63° 71° (ENE) 17:03:56 437.490
CINEMA 3 09 Dec 16:59:10 17:02:30 18° 60° (ENE) 17:05:52 145.822/145.860
AIST 2 09 Dec 17:02:04 17:03:30 11° 251° (WSW) 17:04:55 435.215
BRITE-PL 09 Dec 17:04:54 17:08:41 27° 267° (W) 17:12:45 437.365/2234.400
Cosmos 2491 09 Dec 17:08:52 17:17:36 70° 77° (ENE) 17:26:17 435.465 / 435.565
NOAA 18 09 Dec 17:09:25 17:14:52 60° 70° (ENE) 17:20:21 137.9125
STARS 09 Dec 17:13:44 17:18:04 53° 289° (WNW) 17:22:20 437.465
KKS-1 09 Dec 17:19:43 17:23:23 25° 296° (WNW) 17:27:01 437.445
MOZHAYETS 4 09 Dec 17:20:40 17:22:36 13° 303° (WNW) 17:24:33
ISS 09 Dec 17:29:19 17:32:23 34° 355° (N) 17:35:27 145.825
CUBESAT XI-V 09 Dec 17:32:19 17:36:47 47° 290° (WNW) 17:41:16 437.345
CUTE 1.7 + AOD 2 09 Dec 17:33:05 17:35:59 18° 63° (ENE) 17:38:53 437.475
HORYU 2 09 Dec 17:35:48 17:38:38 16° 269° (W) 17:41:30 437.375
PCSat 09 Dec 17:36:02 17:40:16 22° 37° (NE) 17:44:28 145.827
YUBILEINY 09 Dec 17:38:18 17:46:13 41° 85° (E) 17:54:11 435.215
DOVE 4 09 Dec 17:45:53 17:50:45 59° 260° (W) 17:55:53 437.250
CANX-2 09 Dec 17:51:01 17:54:43 30° 68° (ENE) 17:58:25 2200.000
LilacSat-2 09 Dec 17:52:04 17:55:26 29° 264° (W) 17:58:49 437.200
STRAND 1 09 Dec 17:57:18 18:00:04 14° 88° (E) 18:02:49 437.568
GOMX 1 09 Dec 17:58:05 18:01:44 22° 270° (W) 18:05:35 467.674
Cosmos 2504 09 Dec 18:06:34 18:13:46 32° 81° (E) 18:21:12 435.465 / 435.565
CUTE-I 09 Dec 18:06:41 18:11:29 33° 264° (W) 18:16:19 437.470
SO-50 09 Dec 18:06:56 18:10:35 22° 113° (ESE) 18:14:11 436.795
SEEDS 09 Dec 18:07:54 18:11:26 27° 67° (ENE) 18:14:59 437.485
COMPASS 1 09 Dec 18:10:53 18:13:58 21° 65° (ENE) 18:17:03 437.405
HO-68 09 Dec 18:12:53 18:19:59 67° 68° (ENE) 18:27:07 435.675
NOAA 15 09 Dec 18:16:41 18:20:54 24° 267° (W) 18:25:09 137.62
CUBEBUG 2 09 Dec 18:25:06 18:29:10 29° 67° (ENE) 18:33:12 437.445
Oscar 11 09 Dec 18:27:46 18:29:11 11° 58° (ENE) 18:30:37 145.826/435.025
CINEMA 3 09 Dec 18:34:06 18:39:05 71° 259° (WSW) 18:44:08 145.822/145.860
Cubesat XI-IV 09 Dec 18:35:14 18:39:07 20° 269° (W) 18:43:01 437.490
AIST 1 09 Dec 18:35:57 18:39:56 37° 92° (E) 18:43:59
RS-15 09 Dec 18:49:28 18:52:13 11° 271° (W) 18:54:58 29.354- 29.394
NOAA 18 09 Dec 18:51:40 18:55:55 22° 268° (W) 19:00:12 137.9125
UWE-3 09 Dec 18:58:27 19:02:45 40° 70° (ENE) 19:07:00 435.000/436.395/437.385
ISS 09 Dec 19:06:08 19:09:20 45° 15° (NNE) 19:12:32 145.825
Cosmos 2491 09 Dec 19:06:38 19:13:42 29° 279° (W) 19:20:46 435.465 / 435.565
CUSAT 1 09 Dec 19:06:48 19:10:33 51° 77° (ENE) 19:15:26 437.405
CUTE 1.7 + AOD 2 09 Dec 19:07:24 19:11:29 49° 261° (W) 19:15:35 437.475
AAUSAT CUBESAT 2 09 Dec 19:10:31 19:14:35 66° 74° (ENE) 19:18:40 437.432
PCSat 09 Dec 19:18:53 19:24:21 86° 239° (WSW) 19:29:47 145.827
CANX-2 09 Dec 19:26:58 19:30:34 27° 265° (W) 19:34:10 2200.000
ZACube-1 09 Dec 19:29:55 19:34:17 50° 72° (ENE) 19:38:36 437.345
DELFI C3 09 Dec 19:33:53 19:36:34 18° 64° (ENE) 19:39:15 145.870
YUBILEINY 09 Dec 19:34:25 19:42:49 51° 287° (WNW) 19:51:21 435.215
STRAND 1 09 Dec 19:34:44 19:39:52 79° 286° (WNW) 19:44:57 437.568
FUNcube-1 09 Dec 19:35:08 19:39:30 53° 72° (ENE) 19:43:49 145.935
SEEDS 09 Dec 19:43:25 19:47:04 29° 265° (W) 19:50:45 437.485
COMPASS 1 09 Dec 19:45:22 19:49:16 40° 262° (W) 19:53:11 437.405
SO-50 09 Dec 19:46:01 19:50:43 58° 312° (NW) 19:55:21 436.795
Cosmos 2504 09 Dec 19:58:01 20:06:30 67° 283° (WNW) 20:15:24 435.465 / 435.565
Oscar 11 09 Dec 20:00:20 20:04:39 90° 297° (WNW) 20:08:59 145.826/435.025
CUBEBUG 2 09 Dec 20:01:20 20:05:41 35° 264° (W) 20:10:00 437.445
HO-68 09 Dec 20:02:23 20:08:15 27° 268° (W) 20:14:10 435.675
PRISM 09 Dec 20:07:48 20:10:38 18° 92° (E) 20:13:27 437.425
AIST 1 09 Dec 20:14:16 20:17:40 22° 290° (WNW) 20:21:09
HUMSAT D 09 Dec 20:21:04 20:24:45 31° 68° (ENE) 20:28:26 437.325/437.525
DANDE 09 Dec 20:34:48 20:37:43 67° 261° (W) 20:41:22 436.750
UWE-3 09 Dec 20:35:30 20:39:19 25° 267° (W) 20:43:05 435.000/436.395/437.385
ISS 09 Dec 20:42:41 20:45:52 46° 214° (SW) 20:49:03 145.825
AAUSAT CUBESAT 2 09 Dec 20:48:48 20:50:31 12° 272° (W) 20:52:12 437.432
CUSAT 1 09 Dec 20:49:50 20:52:20 16° 267° (W) 20:55:13 437.405
TIGRISAT 09 Dec 20:51:27 20:53:03 12° 87° (E) 20:54:38 435.000
ANTELSAT 09 Dec 20:53:37 20:55:44 13° 88° (E) 20:57:50 437.575/2403.000
PCSat 09 Dec 21:04:17 21:06:55 14° 257° (WSW) 21:09:33 145.827
DELFI C3 09 Dec 21:07:19 21:11:04 43° 262° (W) 21:14:51 145.870
ZACube-1 09 Dec 21:07:39 21:10:50 19° 269° (W) 21:13:59 437.345
ESTCUBE 1 09 Dec 21:08:32 21:11:35 18° 61° (ENE) 21:14:39 437.505/2401.250
CUBEBUG 1 09 Dec 21:12:44 21:14:42 13° 58° (ENE) 21:16:39 437.445
FUNcube-1 09 Dec 21:12:59 21:16:02 18° 269° (W) 21:19:04 145.935
STRAND 1 09 Dec 21:15:55 21:18:13 13° 305° (NW) 21:20:30 437.568
SO-50 09 Dec 21:29:21 21:32:09 15° 333° (NNW) 21:34:55 436.795
VELOX 1 09 Dec 21:34:09 21:36:37 15° 59° (ENE) 21:39:05 145.980
SPROUT 09 Dec 21:37:42 21:37:48 10° 56° (ENE) 21:37:54 437.525
YUBILEINY 09 Dec 21:39:08 21:42:17 12° 314° (NW) 21:45:27 435.215
PRISM 09 Dec 21:42:09 21:46:10 47° 289° (WNW) 21:50:10 437.425
Cosmos 2504 09 Dec 21:56:34 22:01:54 17° 308° (NW) 22:07:22 435.465 / 435.565
HUMSAT D 09 Dec 21:56:51 22:00:23 26° 265° (W) 22:03:54 437.325/437.525
UNISAT 6 09 Dec 21:57:18 22:01:39 60° 100° (E) 22:05:53 437.425
JAS-2 09 Dec 22:13:10 22:17:01 20° 92° (E) 22:20:59 435.910
GONETS M04 09 Dec 22:19:52 22:25:12 18° 75° (ENE) 22:30:31
POPSAT HIP 1 09 Dec 22:24:19 22:26:26 13° 89° (E) 22:28:32 437.405
TIGRISAT 09 Dec 22:25:56 22:30:20 75° 285° (WNW) 22:34:36 435.000
ANTELSAT 09 Dec 22:28:35 22:32:58 66° 286° (WNW) 22:37:12 437.575/2403.000
50 SAT 09 Dec 22:31:01 22:34:13 34° 70° (ENE) 22:37:26 437.505
AISAT 09 Dec 22:31:36 22:35:54 52° 71° (ENE) 22:40:15 437.250
ESTCUBE 1 09 Dec 22:43:36 22:47:59 56° 259° (W) 22:52:26 437.505/2401.250
CUBEBUG 1 09 Dec 22:45:56 22:50:19 84° 258° (WSW) 22:54:46 437.445
Cosmos 2499 09 Dec 22:46:00 22:53:14 31° 81° (E) 23:00:36 435.465 / 435.565
O/OREOS (USA 219) 09 Dec 22:49:11 22:51:17 13° 44° (NE) 22:53:23 437.305
UKube-1 09 Dec 23:05:27 23:09:34 45° 70° (ENE) 23:13:43 .
DX 1 09 Dec 23:06:50 23:11:08 62° 72° (ENE) 23:15:28 434.975-435.025
VELOX 1 09 Dec 23:08:06 23:12:31 73° 257° (WSW) 23:16:59 145.980
SPROUT 09 Dec 23:08:39 23:12:58 77° 75° (ENE) 23:17:18 437.525
NANOSAT C BR1 09 Dec 23:14:19 23:18:21 41° 99° (E) 23:22:19 145.865
QB50P2 09 Dec 23:24:25 23:28:38 62° 101° (E) 23:32:48 145.880/145.840
POLYITAN 1 09 Dec 23:24:49 23:29:02 58° 101° (E) 23:33:11 437.675
DUCHIFAT 1 09 Dec 23:34:06 23:38:18 63° 101° (ESE) 23:42:27 145.980
UNISAT 6 09 Dec 23:35:09 23:37:54 17° 299° (WNW) 23:40:37 437.425
QB50P1 09 Dec 23:36:22 23:40:38 78° 103° (ESE) 23:44:51 145.935-145.965
AO-85 09 Dec 23:50:33 23:53:57 19° 113° (ESE) 23:57:12 145.980
PHONESAT 2.4 09 Dec 23:51:54 23:53:56 20° 174° (S) 23:55:59 2401.200-2431.200
JAS-2 09 Dec 23:57:25 00:02:31 57° 289° (WNW) 00:07:52 435.910
POPSAT HIP 1 09 Dec 23:58:26 00:02:39 63° 287° (WNW) 00:06:48 437.405
50 SAT 10 Dec 00:05:18 00:07:38 17° 267° (W) 00:09:59 437.505
AISAT 10 Dec 00:09:38 00:12:41 18° 269° (W) 00:15:45 437.250
GONETS M04 10 Dec 00:11:53 00:20:35 81° 96° (E) 00:29:18
BUGSAT 1 10 Dec 00:13:00 00:17:10 64° 101° (E) 00:21:15 437.445
TISAT 1 10 Dec 00:14:48 00:19:01 69° 74° (ENE) 00:23:17 437.305
Oscar 19 10 Dec 00:16:38 00:20:24 20° 91° (E) 00:24:08 437.125/150
O/OREOS (USA 219) 10 Dec 00:26:58 00:31:29 80° 66° (ENE) 00:35:57 437.305
AUBIESAT-1 10 Dec 00:30:19 00:34:03 29° 59° (ENE) 00:37:58 437.475
Cosmos 2499 10 Dec 00:36:59 00:45:40 70° 282° (WNW) 00:54:35 435.465 / 435.565
SWISSCUBE 10 Dec 00:39:22 00:43:35 32° 66° (ENE) 00:47:49 437.505
UKube-1 10 Dec 00:42:42 00:45:50 19° 267° (W) 00:48:59 .
BEESAT 10 Dec 00:42:57 00:47:09 32° 65° (ENE) 00:51:21 436.000
DX 1 10 Dec 00:45:18 00:47:44 15° 270° (W) 00:50:11 434.975-435.025
M-CUBED/EXP-1 PRIME 10 Dec 00:45:54 00:50:02 47° 64° (ENE) 00:54:26 437.505
SPROUT 10 Dec 00:47:59 00:49:25 11° 272° (W) 00:50:53 437.525
Gurwin Techsat 1B 10 Dec 00:48:06 00:52:00 20° 91° (E) 00:55:53 435.225
NANOSAT C BR1 10 Dec 00:50:37 00:53:48 21° 296° (WNW) 00:56:59 145.865
SO-50 10 Dec 00:55:09 00:57:17 13° 23° (NNE) 00:59:25 436.795
QB50P2 10 Dec 01:01:27 01:03:57 16° 299° (WNW) 01:06:27 145.880/145.840
POLYITAN 1 10 Dec 01:01:46 01:04:23 16° 299° (WNW) 01:06:58 437.675
DUCHIFAT 1 10 Dec 01:11:04 01:13:30 15° 299° (WNW) 01:15:55 145.980
MOZHAYETS 4 10 Dec 01:11:07 01:13:51 16° 60° (ENE) 01:16:34
ITUPSAT 1 10 Dec 01:13:03 01:17:44 58° 71° (ENE) 01:22:26 437.325
QB50P1 10 Dec 01:13:54 01:15:49 13° 301° (WNW) 01:17:42 145.935-145.965
PHONESAT 2.4 10 Dec 01:26:45 01:28:38 18° 191° (S) 01:30:31 2401.200-2431.200
AO-85 10 Dec 01:29:14 01:34:02 65° 309° (NW) 01:38:30 145.980
BUGSAT 1 10 Dec 01:49:42 01:52:02 15° 300° (WNW) 01:54:20 437.445
TISAT 1 10 Dec 01:53:15 01:55:08 13° 271° (W) 01:57:01 437.305
Oscar 19 10 Dec 01:54:59 02:00:07 61° 289° (WNW) 02:05:14 437.125/150
AUBIESAT-1 10 Dec 02:04:21 02:08:19 36° 258° (WSW) 02:12:30 437.475
O/OREOS (USA 219) 10 Dec 02:08:36 02:10:12 12° 263° (W) 02:11:46 437.305
GONETS M04 10 Dec 02:11:33 02:18:30 26° 299° (WNW) 02:25:29
SWISSCUBE 10 Dec 02:17:04 02:21:21 33° 264° (W) 02:25:38 437.505
BEESAT 10 Dec 02:20:34 02:24:52 33° 263° (W) 02:29:13 436.000
M-CUBED/EXP-1 PRIME 10 Dec 02:21:28 02:24:45 21° 263° (W) 02:28:12 437.505
AO-7 10 Dec 02:26:21 02:33:17 28° 93° (E) 02:40:10 29.400- 29.500
Gurwin Techsat 1B 10 Dec 02:27:07 02:32:22 61° 289° (WNW) 02:37:35 435.225
ITAMSAT 1 10 Dec 02:33:17 02:38:09 40° 98° (E) 02:42:59 435.822/435.867
SO-50 10 Dec 02:34:32 02:38:56 44° 46° (NE) 02:43:14 436.795
Cosmos 2499 10 Dec 02:34:59 02:40:40 18° 306° (NW) 02:46:24 435.465 / 435.565
STARS 10 Dec 02:37:30 02:41:00 23° 64° (ENE) 02:44:31 437.465
KKS-1 10 Dec 02:43:13 02:47:33 51° 71° (ENE) 02:51:55 437.445
MOZHAYETS 4 10 Dec 02:45:54 02:50:28 70° 258° (WSW) 02:55:03
ITUPSAT 1 10 Dec 02:52:39 02:55:56 18° 269° (W) 02:59:14 437.325
CUBESAT XI-V 10 Dec 03:01:31 03:05:27 29° 66° (ENE) 03:09:24 437.345
BEESAT 3 10 Dec 03:12:29 03:15:46 26° 116° (ESE) 03:19:07 437.485
AO-85 10 Dec 03:12:30 03:15:14 15° 329° (NNW) 03:17:51 145.980
BRITE-PL 10 Dec 03:28:52 03:30:59 12° 85° (E) 03:33:06 437.365/2234.400
Oscar 19 10 Dec 03:37:30 03:38:24 10° 308° (NW) 03:39:19 437.125/150
YUBILEINY 10 Dec 03:44:24 03:51:18 24° 60° (ENE) 03:58:10 435.215
BEESAT 2 10 Dec 03:51:17 03:54:47 31° 117° (ESE) 03:58:20 435.950
Cosmos 2504 10 Dec 03:55:54 04:00:33 15° 50° (NE) 04:05:05 435.465 / 435.565
Gurwin Techsat 1B 10 Dec 04:10:03 04:11:16 11° 309° (NW) 04:12:28 435.225
STARS 10 Dec 04:12:55 04:17:07 42° 261° (W) 04:21:21 437.465
ITAMSAT 1 10 Dec 04:12:59 04:17:30 31° 296° (WNW) 04:21:59 435.822/435.867
SO-50 10 Dec 04:15:24 04:19:11 27° 245° (WSW) 04:22:56 436.795
AO-7 10 Dec 04:18:25 04:26:46 74° 294° (WNW) 04:35:07 29.400- 29.500
GOMX 1 10 Dec 04:18:36 04:21:44 15° 86° (E) 04:24:52 467.674
KKS-1 10 Dec 04:21:16 04:24:25 19° 268° (W) 04:27:34 437.445
Cosmos 2491 10 Dec 04:22:00 04:26:35 16° 72° (ENE) 04:31:08 435.465 / 435.565
CUBESAT XI-V 10 Dec 04:38:33 04:42:44 34° 264° (W) 04:46:58 437.345
AIST 1 10 Dec 04:40:49 04:43:15 14° 65° (ENE) 04:45:40
CUTE-I 10 Dec 04:42:47 04:44:24 11° 86° (E) 04:46:00 437.470
RS-15 10 Dec 04:48:42 04:57:05 23° 98° (E) 05:05:40 29.354- 29.394
NOAA 15 10 Dec 04:49:22 04:52:14 15° 88° (E) 04:55:06 137.62
BEESAT 3 10 Dec 04:49:39 04:53:17 36° 315° (NW) 04:56:58 437.485
BRITE-PL 10 Dec 05:04:41 05:10:13 77° 102° (ESE) 05:15:55 437.365/2234.400
Cubesat XI-IV 10 Dec 05:08:29 05:12:20 20° 91° (E) 05:16:09 437.490
STRAND 1 10 Dec 05:15:16 05:19:39 29° 64° (ENE) 05:24:01 437.568
HORYU 2 10 Dec 05:21:38 05:26:05 77° 102° (ESE) 05:30:30 437.375
LilacSat-2 10 Dec 05:22:23 05:25:27 23° 94° (E) 05:28:29 437.200
BEESAT 2 10 Dec 05:28:57 05:32:33 32° 316° (NW) 05:36:12 435.950
NOAA 18 10 Dec 05:29:27 05:33:24 20° 91° (E) 05:37:18 137.9125
YUBILEINY 10 Dec 05:40:27 05:49:20 87° 262° (W) 05:58:11 435.215
DOVE 4 10 Dec 05:42:02 05:46:52 35° 95° (E) 05:51:32 437.250
Cosmos 2504 10 Dec 05:47:30 05:56:13 60° 75° (ENE) 06:04:22 435.465 / 435.565
GOMX 1 10 Dec 05:54:56 06:00:28 86° 285° (WNW) 06:05:57 467.674
AO-7 10 Dec 06:12:24 06:18:16 22° 315° (NW) 06:24:07 29.400- 29.500
Cosmos 2491 10 Dec 06:13:03 06:21:46 72° 94° (E) 06:30:28 435.465 / 435.565
AIST 1 10 Dec 06:16:57 06:21:21 66° 264° (W) 06:25:42
CUTE-I 10 Dec 06:19:57 06:25:19 80° 104° (ESE) 06:30:37 437.470
CINEMA 3 10 Dec 06:26:51 06:30:42 24° 92° (E) 06:34:22 145.822/145.860
NOAA 15 10 Dec 06:27:22 06:32:40 83° 286° (WNW) 06:37:58 137.62
BRITE-PL 10 Dec 06:44:17 06:48:07 20° 300° (WNW) 06:52:03 437.365/2234.400
Cubesat XI-IV 10 Dec 06:47:34 06:52:52 63° 289° (WNW) 06:58:06 437.490
CUTE 1.7 + AOD 2 10 Dec 06:49:40 06:53:02 23° 93° (E) 06:56:24 437.475
STRAND 1 10 Dec 06:53:49 06:58:40 42° 262° (W) 07:03:32 437.568
RS-15 10 Dec 06:55:44 07:07:32 80° 122° (ESE) 07:19:54 29.354- 29.394
LilacSat-2 10 Dec 06:56:28 06:59:45 28° 292° (WNW) 07:03:01 437.200
AIST 2 10 Dec 06:59:14 07:03:19 73° 124° (SE) 07:07:30 435.215
HORYU 2 10 Dec 06:59:45 07:02:03 14° 302° (WNW) 07:04:20 437.375
PRISM 10 Dec 06:59:57 07:02:53 19° 63° (ENE) 07:05:49 437.425
CANX-2 10 Dec 07:08:16 07:12:16 40° 98° (E) 07:16:15 2200.000
NOAA 18 10 Dec 07:09:02 07:14:33 67° 290° (WNW) 07:20:00 137.9125
DOVE 4 10 Dec 07:19:44 07:24:30 35° 294° (WNW) 07:29:07 437.250
SEEDS 10 Dec 07:23:44 07:27:37 35° 97° (E) 07:31:27 437.485
HO-68 10 Dec 07:24:56 07:32:00 54° 101° (E) 07:39:01 435.675
COMPASS 1 10 Dec 07:25:14 07:28:43 25° 94° (E) 07:32:10 437.405
UNISAT 6 10 Dec 07:25:50 07:26:56 11° 56° (ENE) 07:28:02 437.425
GOMX 1 10 Dec 07:34:35 07:37:44 16° 303° (WNW) 07:40:54 467.674
YUBILEINY 10 Dec 07:38:58 07:44:49 20° 284° (WNW) 07:50:42 435.215
Cosmos 2504 10 Dec 07:41:32 07:49:07 35° 277° (W) 07:56:19 435.465 / 435.565
Oscar 11 10 Dec 07:46:07 07:48:19 14° 89° (E) 07:50:32 145.826/435.025
CUBEBUG 2 10 Dec 07:49:11 07:53:17 39° 97° (E) 07:57:15 437.445
TIGRISAT 10 Dec 07:52:02 07:55:06 18° 61° (ENE) 07:58:09 435.000
ANTELSAT 10 Dec 07:54:31 07:57:48 20° 62° (ENE) 08:01:04 437.575/2403.000
CUTE-I 10 Dec 08:01:17 08:04:43 18° 303° (WNW) 08:08:09 437.470
CINEMA 3 10 Dec 08:03:30 08:08:01 42° 291° (WNW) 08:12:18 145.822/145.860
NOAA 15 10 Dec 08:08:55 08:11:39 14° 305° (NW) 08:14:24 137.62
Cosmos 2491 10 Dec 08:12:03 08:19:26 29° 297° (WNW) 08:26:51 435.465 / 435.565
CUSAT 1 10 Dec 08:14:26 08:16:52 27° 97° (E) 08:19:09 437.405
AO-85 10 Dec 08:18:12 08:21:55 33° 43° (NE) 08:25:28 145.980
UWE-3 10 Dec 08:21:23 08:25:36 55° 100° (E) 08:29:42 435.000/436.395/437.385
AAUSAT CUBESAT 2 10 Dec 08:24:59 08:29:09 85° 102° (ESE) 08:33:19 437.432
CUTE 1.7 + AOD 2 10 Dec 08:25:06 08:28:59 37° 290° (WNW) 08:32:52 437.475
GONETS M04 10 Dec 08:25:09 08:27:23 11° 45° (NE) 08:29:38
Cubesat XI-IV 10 Dec 08:30:24 08:31:54 11° 308° (NW) 08:33:24 437.490
JAS-2 10 Dec 08:30:35 08:33:39 15° 56° (NE) 08:36:36 435.910
PRISM 10 Dec 08:33:58 08:37:52 44° 261° (W) 08:41:50 437.425
Cosmos 2499 10 Dec 08:34:25 08:38:21 14° 48° (NE) 08:42:10 435.465 / 435.565
AIST 2 10 Dec 08:39:12 08:42:16 20° 324° (NW) 08:45:22 435.215
DELFI C3 10 Dec 08:42:11 08:45:02 19° 92° (E) 08:47:52 145.870
CANX-2 10 Dec 08:44:39 08:47:53 22° 295° (WNW) 08:51:07 2200.000
ZACube-1 10 Dec 08:51:28 08:55:41 72° 101° (E) 08:59:50 437.345
NOAA 18 10 Dec 08:51:56 08:54:12 13° 309° (NW) 08:56:28 137.9125
FUNcube-1 10 Dec 08:56:19 09:00:33 75° 102° (ESE) 09:04:40 145.935
UNISAT 6 10 Dec 08:58:12 09:02:51 75° 74° (ENE) 09:07:28 437.425
QB50P1 10 Dec 08:59:28 09:00:17 10° 57° (ENE) 09:01:06 145.935-145.965
SEEDS 10 Dec 08:59:45 09:03:08 24° 294° (WNW) 09:06:31 437.485
COMPASS 1 10 Dec 09:00:34 09:04:18 32° 291° (WNW) 09:08:02 437.405
RS-15 10 Dec 09:09:54 09:21:19 45° 330° (NNW) 09:33:06 29.354- 29.394
HO-68 10 Dec 09:13:04 09:19:28 36° 301° (WNW) 09:25:52 435.675
POPSAT HIP 1 10 Dec 09:19:25 09:22:05 16° 61° (ENE) 09:24:44 437.405
Oscar 11 10 Dec 09:20:38 09:24:54 64° 287° (WNW) 09:29:09 145.826/435.025
CUBEBUG 2 10 Dec 09:26:16 09:29:41 23° 296° (WNW) 09:33:01 437.445
TIGRISAT 10 Dec 09:26:42 09:31:20 63° 259° (W) 09:35:55 435.000
ANTELSAT 10 Dec 09:29:33 09:34:08 56° 260° (W) 09:38:40 437.575/2403.000
HUMSAT D 10 Dec 09:36:30 09:40:19 38° 97° (E) 09:44:08 437.325/437.525
DANDE 10 Dec 09:46:50 09:50:43 67° 282° (WNW) 09:53:45 436.750
BEESAT 3 10 Dec 09:50:32 09:51:21 10° 26° (NNE) 09:52:10 437.485
AO-85 10 Dec 09:58:47 10:02:13 28° 244° (WSW) 10:05:34 145.980
UWE-3 10 Dec 09:58:54 10:01:38 17° 299° (WNW) 10:04:19 435.000/436.395/437.385
AAUSAT CUBESAT 2 10 Dec 10:02:37 10:03:59 11° 301° (WNW) 10:05:22 437.432
PCSat 10 Dec 10:03:11 10:08:22 49° 115° (ESE) 10:13:36 145.827
NANOSAT C BR1 10 Dec 10:08:45 10:12:49 45° 70° (ENE) 10:16:54 145.865
JAS-2 10 Dec 10:11:56 10:18:06 83° 72° (ENE) 10:23:37 435.910
DELFI C3 10 Dec 10:16:16 10:20:01 40° 290° (WNW) 10:23:45 145.870
GONETS M04 10 Dec 10:18:37 10:27:00 47° 72° (ENE) 10:35:21
QB50P2 10 Dec 10:19:17 10:23:31 66° 74° (ENE) 10:27:48 145.880/145.840
POLYITAN 1 10 Dec 10:19:41 10:23:55 63° 73° (ENE) 10:28:11 437.675
Cosmos 2499 10 Dec 10:25:27 10:33:53 56° 74° (ENE) 10:41:40 435.465 / 435.565
DUCHIFAT 1 10 Dec 10:28:10 10:32:24 66° 73° (ENE) 10:36:38 145.980
ZACube-1 10 Dec 10:29:24 10:31:25 13° 301° (WNW) 10:33:25 437.345
BEESAT 2 10 Dec 10:29:43 10:31:12 12° 27° (NNE) 10:32:42 435.950
QB50P1 10 Dec 10:31:02 10:35:19 82° 73° (ENE) 10:39:37 145.935-145.965
CUBEBUG 1 10 Dec 10:32:52 10:35:28 15° 90° (E) 10:38:03 437.445
ESTCUBE 1 10 Dec 10:33:27 10:37:09 24° 94° (E) 10:40:51 437.505/2401.250
FUNcube-1 10 Dec 10:34:19 10:36:12 13° 301° (WNW) 10:38:03 145.935
UNISAT 6 10 Dec 10:37:46 10:40:04 14° 271° (W) 10:42:21 437.425
POPSAT HIP 1 10 Dec 10:53:10 10:57:24 60° 259° (W) 11:01:40 437.405
SPROUT 10 Dec 10:54:09 10:55:11 11° 87° (E) 10:56:12 437.525
VELOX 1 10 Dec 10:56:10 10:59:11 18° 91° (E) 11:02:11 145.980
BUGSAT 1 10 Dec 11:04:51 11:09:03 65° 73° (ENE) 11:13:18 437.445
HUMSAT D 10 Dec 11:12:37 11:15:44 21° 295° (WNW) 11:18:50 437.325/437.525
BEESAT 3 10 Dec 11:26:10 11:30:00 42° 47° (NE) 11:33:48 437.485
RS-15 10 Dec 11:27:05 11:37:53 33° 4° (N) 11:48:43 29.354- 29.394
50 SAT 10 Dec 11:27:20 11:30:24 26° 96° (E) 11:33:27 437.505
Oscar 19 10 Dec 11:35:55 11:40:37 38° 66° (ENE) 11:45:23 437.125/150
AO-7 10 Dec 11:40:59 11:45:10 15° 37° (NE) 11:49:23 29.400- 29.500
NANOSAT C BR1 10 Dec 11:45:41 11:48:46 19° 268° (W) 11:51:51 145.865
PCSat 10 Dec 11:47:06 11:51:58 33° 316° (NW) 11:56:53 145.827
AISAT 10 Dec 11:54:55 11:59:25 71° 102° (ESE) 12:03:51 437.250
QB50P2 10 Dec 11:57:41 11:59:46 13° 271° (W) 12:01:52 145.880/145.840
POLYITAN 1 10 Dec 11:57:51 12:00:08 14° 271° (W) 12:02:24 437.675
JAS-2 10 Dec 12:00:13 12:03:44 16° 270° (W) 12:07:05 435.910
BEESAT 2 10 Dec 12:05:59 12:09:56 50° 48° (NE) 12:13:52 435.950
DUCHIFAT 1 10 Dec 12:06:28 12:08:31 13° 271° (W) 12:10:35 145.980
CUBEBUG 1 10 Dec 12:07:45 12:12:09 62° 288° (WNW) 12:16:31 437.445
ESTCUBE 1 10 Dec 12:09:52 12:14:04 39° 291° (WNW) 12:18:16 437.505/2401.250
QB50P1 10 Dec 12:10:43 12:11:39 11° 273° (W) 12:12:36 145.935-145.965
Gurwin Techsat 1B 10 Dec 12:11:35 12:16:35 42° 67° (ENE) 12:21:35 435.225
GONETS M04 10 Dec 12:15:42 12:23:45 44° 273° (W) 12:31:50
ITAMSAT 1 10 Dec 12:17:53 12:20:28 14° 55° (NE) 12:23:03 435.822/435.867
Cosmos 2499 10 Dec 12:19:08 12:26:37 36° 277° (W) 12:33:38 435.465 / 435.565
UKube-1 10 Dec 12:25:16 12:29:33 55° 101° (E) 12:33:47 .
SPROUT 10 Dec 12:27:22 12:31:41 81° 285° (WNW) 12:35:57 437.525
DX 1 10 Dec 12:28:02 12:32:28 79° 104° (ESE) 12:36:51 434.975-435.025
VELOX 1 10 Dec 12:31:36 12:35:58 53° 289° (WNW) 12:40:18 145.980
